{"data":{"norad_id":64936,"epoch":"2026-05-25T02:49:14.503008Z","epoch_age_seconds":68831,"freshness":"FRESH","line1":"1 64936U 25158E   26145.11752897  .00005534  00000+0  38719-3 0  9994","line2":"2 64936  97.4507   9.0033 0001604 111.9054 248.2343 15.05662360 46852","mean_motion":15.0566236,"eccentricity":0.0001604,"inclination_deg":97.4507,"raan_deg":9.0033,"arg_perigee_deg":111.9054,"mean_anomaly_deg":248.2343,"bstar":0.00038719,"rev_number":4685,"period_min":95.63897180773,"perigee_km":548.36205254117,"apogee_km":550.58442990655,"semimajor_km":6927.6102412239,"source":"CELESTRAK","updated_at":"2026-05-25T13:38:20.629695Z"}}